Weather History for Alliance, NE

Change the Weather History Date:

Saturday, September 21, 2013

  Actual Average Record
Temperature  
Mean Temperature 63 °F 57 °F  
Max Temperature 90 °F 74 °F 94 °F (2005)
Min Temperature 36 °F 40 °F 22 °F (1913)
Degree Days  
Heating Degree Days 2 9  
Month to date heating degree days 44 110  
Since 1 July heating degree days 52 147  
Cooling Degree Days 0 1  
Month to date cooling degree days 132 37  
Year to date cooling degree days 791 560  
Growing Degree Days 13 (Base 50)    
Moisture  
Dew Point 39 °F    
Average Humidity 52    
Maximum Humidity 93    
Minimum Humidity 10    
Precipitation  
Precipitation 0.00 in 0.04 in 1.70 in (1902)
Month to date precipitation 0.77 1.02  
Year to date precipitation 9.83 13.43  
Sea Level Pressure  
Sea Level Pressure 29.78 in    
Wind  
Wind Speed 8 mph (SSW)    
Max Wind Speed 20 mph    
Max Gust Speed 29 mph    
Visibility 10 miles    
Events      
T = Trace of Precipitation, MM = Missing Value Source: NWS Daily Summary

Daily Weather History Graph

Daily Weather History Graph

Search for Another Location

Airport:

Trip Planner

Search our weather history database for the weather conditions in past years. The results will help you decide how hot, cold, wet, or windy it might be!

Date:

Astronomy

Sep. 21, 2013 Rise Set
Actual Time 6:37 AM MDT 6:49 PM MDT
Civil Twilight 6:09 AM MDT 7:17 PM MDT
Nautical Twilight 5:37 AM MDT 7:50 PM MDT
Astronomical Twilight 5:03 AM MDT 8:23 PM MDT
Moon 7:58 PM MDT (9/21) 9:01 AM MDT (9/21)
Length of Visible Light 13h 07m
Length of Day
12h 11m
Waning Gibbous, 94% of the Moon is Illuminated
Sep 21
Waning Gibbous
Sep 26
Last Quarter
Oct 4
New
Oct 11
First Quarter
Oct 18
Full

Hourly Weather History & Observations

Time (MDT) Temp. Windchill Dew Point Humidity Pressure Visibility Wind Dir Wind Speed Gust Speed Precip Events Conditions
12:53 AM 46.9 °F - 39.0 °F 74% 29.93 in 10.0 mi SE 3.5 mph - N/A   Clear
1:53 AM 43.0 °F - 39.0 °F 86% 29.92 in 10.0 mi Calm Calm - N/A   Clear
2:53 AM 42.1 °F - 37.9 °F 85% 29.90 in 10.0 mi Calm Calm - N/A   Clear
3:53 AM 39.0 °F 36.8 °F 35.1 °F 86% 29.90 in 10.0 mi SW 3.5 mph - N/A   Clear
4:53 AM 37.9 °F - 35.1 °F 89% 29.88 in 10.0 mi Calm Calm - N/A   Clear
5:53 AM 37.0 °F - 33.1 °F 86% 29.89 in 10.0 mi Calm Calm - N/A   Clear
6:53 AM 41.0 °F 38.0 °F 39.0 °F 93% 29.89 in 10.0 mi SE 4.6 mph - N/A   Clear
7:53 AM 50.0 °F - 46.0 °F 86% 29.90 in 10.0 mi SSE 3.5 mph - N/A   Clear
8:53 AM 61.0 °F - 48.0 °F 62% 29.87 in 10.0 mi South 4.6 mph - N/A   Clear
9:53 AM 73.9 °F - 48.0 °F 40% 29.83 in 10.0 mi SW 8.1 mph - N/A   Clear
10:53 AM 80.1 °F - 41.0 °F 25% 29.81 in 10.0 mi SW 11.5 mph 18.4 mph N/A   Clear
11:53 AM 84.9 °F - 37.9 °F 19% 29.77 in 10.0 mi WSW 10.4 mph 17.3 mph N/A   Clear
12:53 PM 87.1 °F - 35.1 °F 16% 29.74 in 10.0 mi WSW 13.8 mph 25.3 mph N/A   Clear
1:53 PM 88.0 °F - 27.0 °F 11% 29.72 in 10.0 mi West 15.0 mph 24.2 mph N/A   Clear
2:53 PM 89.1 °F - 27.0 °F 11% 29.71 in 10.0 mi West 17.3 mph 23.0 mph N/A   Clear
3:53 PM 88.0 °F - 28.0 °F 12% 29.69 in 10.0 mi West 9.2 mph 19.6 mph N/A   Clear
4:53 PM 88.0 °F - 32.0 °F 14% 29.68 in 10.0 mi SSW 11.5 mph - N/A   Clear
5:53 PM 84.9 °F - 35.1 °F 17% 29.68 in 10.0 mi SW 8.1 mph - N/A   Clear
6:53 PM 72.0 °F - 37.9 °F 29% 29.69 in 10.0 mi South 10.4 mph - N/A   Clear
7:53 PM 69.1 °F - 42.1 °F 38% 29.68 in 10.0 mi South 10.4 mph - N/A   Clear
8:53 PM 66.0 °F - 46.0 °F 48% 29.68 in 10.0 mi South 10.4 mph - N/A   Clear
9:53 PM 66.0 °F - 48.9 °F 54% 29.66 in 10.0 mi South 10.4 mph - N/A   Clear
10:53 PM 61.0 °F - 50.0 °F 67% 29.65 in 10.0 mi South 6.9 mph - N/A   Clear
11:53 PM 55.9 °F - 48.9 °F 77% 29.64 in 10.0 mi South 6.9 mph - N/A   Clear